McAlester, OK

1:19 AM CDT on July 24, 2017 (GMT -0500)
McAlester Regional

Weather History for KMLC - December, 2013

Change the Weather History Date:

Saturday, December 14, 2013

  Actual Average Record
Temperature  
Mean Temperature 31 °F -  
Max Temperature 39 °F 51 °F 73 °F (2008)
Min Temperature 23 °F 30 °F 0 °F (1958)
Degree Days  
Heating Degree Days 34    
Moisture  
Dew Point 33 °F    
Average Humidity 87    
Maximum Humidity 100    
Minimum Humidity 67    
Precipitation  
Precipitation 0.01 in - - ()
Sea Level Pressure  
Sea Level Pressure 30.06 in    
Wind  
Wind Speed 6 mph (NNW)    
Max Wind Speed 18 mph    
Max Gust Speed 29 mph    
Visibility 6 miles    
Events Fog    
Averages and records for this station are not official NWS values.
T = Trace of Precipitation, MM = Missing Value Source: NWS Daily Summary

Daily Weather History Graph

Daily Weather History Graph

Search for Another Location

Airport or City:

Trip Planner

Search our weather history database for the weather conditions in past years. The results will help you decide how hot, cold, wet, or windy it might be!

Date:

Astronomy

Dec. 14, 2013 Rise Set
Actual Time 7:22 AM CST 5:12 PM CST
Civil Twilight 6:54 AM CST 5:41 PM CST
Nautical Twilight 6:23 AM CST 6:12 PM CST
Astronomical Twilight 5:52 AM CST 6:43 PM CST
Moon 3:31 PM CST (12/14) 4:48 AM CST (12/14)
Length of Visible Light 10h 46m
Length of Day
9h 50m
Waxing Gibbous, 94% of the Moon is Illuminated
Dec 14
Waxing Gibbous
Dec 17
Full
Dec 25
Last Quarter
Jan 1
New
Jan 7
First Quarter

Hourly Weather History & Observations

Time (CST) Temp. Windchill Dew Point Humidity Pressure Visibility Wind Dir Wind Speed Gust Speed Precip Events Conditions
12:53 AM 39.9 °F - 39.0 °F 97% 29.85 in 0.8 mi Calm Calm - 0.01 in   Mist
1:17 AM 39.2 °F - 39.2 °F 100% 29.85 in 0.5 mi Calm Calm - N/A Fog Fog
1:46 AM 39.2 °F - 39.2 °F 100% 29.85 in 0.8 mi Calm Calm - N/A   Mist
1:53 AM 39.9 °F - 39.0 °F 97% 29.86 in 0.8 mi Calm Calm - N/A   Mist
2:22 AM 39.2 °F - 39.2 °F 100% 29.85 in 0.5 mi Calm Calm - N/A Fog Fog
2:53 AM 39.9 °F - 39.0 °F 97% 29.87 in 0.5 mi Calm Calm - N/A Fog Fog
3:53 AM 39.9 °F 36.7 °F 39.0 °F 97% 29.89 in 0.5 mi NW 4.6 mph - N/A Fog Fog
4:33 AM 39.2 °F 35.9 °F 39.2 °F 100% 29.89 in 0.8 mi NNW 4.6 mph - N/A   Mist
4:42 AM 39.2 °F 35.0 °F 37.4 °F 93% 29.90 in 1.2 mi NW 5.8 mph - N/A   Overcast
4:48 AM 39.2 °F 34.2 °F 37.4 °F 93% 29.90 in 2.0 mi NW 6.9 mph - N/A   Overcast
4:53 AM 39.0 °F 34.0 °F 37.9 °F 96% 29.91 in 3.0 mi NW 6.9 mph - N/A   Overcast
5:11 AM 39.2 °F 34.2 °F 37.4 °F 93% 29.91 in 6.0 mi NNW 6.9 mph - N/A   Overcast
5:31 AM 39.2 °F 33.6 °F 37.4 °F 93% 29.91 in 6.0 mi NNW 8.1 mph - N/A   Overcast
5:44 AM 39.2 °F 32.0 °F 37.4 °F 93% 29.92 in 8.0 mi NNW 11.5 mph - N/A   Overcast
5:53 AM 39.9 °F 32.9 °F 39.0 °F 97% 29.94 in 8.0 mi NNW 11.5 mph - N/A   Overcast
6:36 AM 39.2 °F 31.2 °F 39.2 °F 100% 29.96 in 7.0 mi North 13.8 mph 20.7 mph N/A   Overcast
6:53 AM 39.9 °F 32.1 °F 37.9 °F 93% 29.97 in 7.0 mi North 13.8 mph 23.0 mph N/A   Overcast
7:53 AM 39.9 °F 31.4 °F 37.0 °F 89% 30.00 in 7.0 mi North 16.1 mph 24.2 mph N/A   Overcast
8:27 AM 39.2 °F 30.5 °F 35.6 °F 87% 30.02 in 10.0 mi North 16.1 mph 28.8 mph N/A   Overcast
8:53 AM 39.0 °F 31.4 °F 36.0 °F 89% 30.05 in 10.0 mi North 12.7 mph 20.7 mph N/A   Overcast
9:53 AM 37.9 °F 28.2 °F 33.1 °F 83% 30.09 in 7.0 mi North 18.4 mph 27.6 mph N/A   Overcast
10:06 AM 37.4 °F 28.9 °F 33.8 °F 87% 30.08 in 6.0 mi North 13.8 mph - N/A   Haze
10:20 AM 37.4 °F 27.8 °F 33.8 °F 87% 30.09 in 5.0 mi North 17.3 mph 26.5 mph N/A   Overcast
10:53 AM 37.0 °F 28.5 °F 32.0 °F 82% 30.12 in 6.0 mi North 13.8 mph 23.0 mph N/A   Haze
11:39 AM 35.6 °F 26.2 °F 30.2 °F 81% 30.14 in 6.0 mi NNW 15.0 mph 23.0 mph N/A   Haze
11:53 AM 35.1 °F 24.8 °F 30.0 °F 82% 30.16 in 6.0 mi NW 17.3 mph 23.0 mph N/A   Haze
12:53 PM 35.1 °F 24.8 °F 28.0 °F 76% 30.17 in 8.0 mi NNW 17.3 mph - N/A   Overcast
1:53 PM 35.1 °F 26.9 °F 28.0 °F 76% 30.18 in 9.0 mi NNW 11.5 mph - N/A   Overcast
2:53 PM 36.0 °F 27.1 °F 28.0 °F 73% 30.20 in 9.0 mi NNW 13.8 mph - N/A   Overcast
3:53 PM 37.0 °F 30.4 °F 27.0 °F 67% 30.21 in 10.0 mi NNW 9.2 mph 18.4 mph N/A   Overcast
4:53 PM 37.0 °F 30.4 °F 27.0 °F 67% 30.23 in 10.0 mi NNW 9.2 mph - N/A   Mostly Cloudy
5:05 PM 35.6 °F 29.2 °F 26.6 °F 70% 30.22 in 10.0 mi NNW 8.1 mph - N/A   Scattered Clouds
5:53 PM 34.0 °F 28.8 °F 26.1 °F 73% 30.25 in 10.0 mi NNW 5.8 mph - N/A   Clear
6:53 PM 32.0 °F 26.4 °F 26.1 °F 79% 30.26 in 10.0 mi NNW 5.8 mph - N/A   Partly Cloudy
7:53 PM 32.0 °F 25.6 °F 25.0 °F 75% 30.28 in 10.0 mi NNW 6.9 mph - N/A   Clear
8:53 PM 30.9 °F 25.2 °F 24.1 °F 76% 30.29 in 10.0 mi NNW 5.8 mph - N/A   Partly Cloudy
9:53 PM 26.1 °F - 23.0 °F 88% 30.30 in 7.0 mi Calm Calm - N/A   Scattered Clouds
10:53 PM 23.0 °F - 21.0 °F 92% 30.30 in 5.0 mi Calm Calm - N/A   Clear
11:53 PM 23.0 °F - 21.0 °F 92% 30.31 in 4.0 mi Calm Calm - N/A   Clear